Starlink 4032

operational
NORAD ID: 52688 Int'l Des: 2022-053 Owner: SPXS Country: US Constellation: starlink
LEOCIRCULAR

About Starlink 4032

Description loading...

Live Position

Loading 3D Globe...

Upcoming Passes

Altitude History

Altitude vs Time

uPlot chart will show altitude changes over time

Two-Line Element Set

1 52688U 22053AJ 25260.23882350 -.00000038 00000-0 15696-4 0 9990
2 52688 53.2152 202.6549 0001470 89.5666 270.5494 15.08846115184934
Epoch: Sep 17, 2025 • Age: 22 hours

Current Status

Altitude 548.7 km
Velocity 7.59 km/s
Sub-Earth Point -27.82°S, 120.61°E
Launch Date May 18, 2022
Age 3.3 years
Type internet

Technical Details

Classification Payload
Mass 297.00 kg
Dry Mass 275.00 kg
Total Mass 297.00 kg
Length 0.20 m
Diameter 2.80 m
Span 9.00 m
Shape Box + pan
Manufacturer SPXS
Bus Type Starlink
Phase Status In Orbit
Owner/State SPXS/US

Large Constellations

Loading constellations...